User: anonymous   Login
Location: Unspecified
(0.0000°N, 0.0000°E)
Time: 15:31:56
(UTC+00:00)
Language:

Optus B1 - Orbit

View from above orbital plane
View from above orbital plane
View from above satellite
View from above satellite

Ground track
Ground track

The orbit data is extracted from the following two-line orbital elements,

1 22087U 92054A   15089.38421303  .00000022  00000-0  00000+0 0  9999
2 22087 007.4107 052.8761 0009478 025.4393 138.8122 00.99202109 94058
Epoch (UTC): 30 March 2015 09:13:16
Eccentricity: 0.0009478
inclination: 7.4107°
perigee height: 36048 km
apogee height: 36129 km
right ascension of ascending node: 52.8761°
argument of perigee: 25.4393°
revolutions per day: 0.99202109
mean anomaly at epoch: 138.8122°
orbit number at epoch: 9405

The dashed part of the orbit path shows where the satellite is in the earth's shadow,  

DLR